Powrót do katalogu

STARLINK-31931

AktywnyŁącznośćVLEO
NORAD 59864·PAYLOAD·🇺🇸 United States

Wystrzelony May 24, 2024 z Cape Canaveral Space Force Station

Loading…

Następne Przeloty (najbliższe 24 godziny)

TLE

ŚwieżeSource: CelesTrak SupGP

Epoka: Sep 15, 2026, 03:03 UTC

1 59864C 24098G   26258.12756944  .00007921  00000+0  28684-3 0  2583
2 59864  43.0001 288.4797 0001197 267.3578 120.0882 15.27580147    15

Śledź STARLINK-31931 w czasie rzeczywistym z AllMySat

Download on the App Store